Location: Krasnoyarskiy Pitomnik
(51.1333°N, 71.6167°E)
Time: 21:28:11
(UTC+00:00)

A-11 Canister half - Pass Details

Date: 19 April 2024
Orbit: 1525 x 1683 km, 47.3° (Epoch: 19 May)

Event Time Altitude Azimuth Distance (km) Brightness Sun altitude
Rises 00:58:38 0° 214° (SSW) 4,864 11.2 6.6°
Reaches altitude 10° 01:02:00 10° 206° (SSW) 3,898 10.8 7.1°
Maximum altitude 01:10:57 39° 143° (SE) 2,346 10.5 8.5°
Drops below altitude 10° 01:20:00 10° 80° (E) 3,950 14.5 9.9°
Sets 01:23:26 0° 73° (ENE) 4,937 13.6 10.5°
